24-07-2023, 00:00:04,    223,    0.0,   14.1,   0.00,   0.00, 1001.9,   98.6, -999.0
24-07-2023, 00:00:14,    223,    0.0,   14.1,   0.00,   0.00, 1001.9,   98.6, -999.0
24-07-2023, 00:00:25,    223,    0.0,   14.2,   0.00,   0.00, 1001.9,   98.6, -999.0
24-07-2023, 00:00:34,    223,    0.0,   14.1,   0.00,   0.00, 1001.9,   98.7, -999.0
24-07-2023, 00:00:44,    223,    0.0,   14.1,   0.00,   0.00, 1001.9,   98.6, -999.0
24-07-2023, 00:00:54,    223,    0.0,   14.1,   0.00,   0.00, 1001.9,   98.6, -999.0
24-07-2023, 00:01:04,    223,    0.0,   14.1,   0.00,   0.00, 1001.9,   98.6, -999.0
24-07-2023, 00:01:14,    224,    0.0,   14.1,   0.00,   0.00, 1001.9,   98.6, -999.0
24-07-2023, 00:01:24,    223,    0.0,   14.2,   0.00,   0.00, 1001.9,   98.7, -999.0
24-07-2023, 00:01:34,    223,    0.0,   14.1,   0.00,   0.00, 1001.9,   98.6, -999.0
24-07-2023, 00:01:44,    223,    0.0,   14.1,   0.00,   0.00, 1001.9,   98.5, -999.0
24-07-2023, 00:01:54,    223,    0.0,   14.1,   0.00,   0.00, 1001.9,   98.6, -999.0
24-07-2023, 00:02:04,    223,    0.0,   14.1,   0.00,   0.00, 1001.9,   98.5, -999.0
24-07-2023, 00:02:14,    225,    0.0,   14.1,   0.00,   0.00, 1001.9,   98.6, -999.0
24-07-2023, 00:02:24,    223,    0.0,   14.0,   0.00,   0.00, 1001.9,   98.6, -999.0
24-07-2023, 00:02:34,    224,    0.0,   14.1,   0.00,   0.00, 1001.9,   98.6, -999.0
24-07-2023, 00:02:44,    223,    0.0,   14.1,   0.00,   0.00, 1001.9,   98.6, -999.0
24-07-2023, 00:02:54,    223,    0.0,   14.1,   0.00,   0.00, 1001.9,   98.6, -999.0
24-07-2023, 00:03:04,    223,    0.0,   14.1,   0.00,   0.00, 1001.9,   98.6, -999.0
24-07-2023, 00:03:14,    225,    0.0,   14.1,   0.00,   0.00, 1001.9,   98.7, -999.0
24-07-2023, 00:03:24,    225,    0.0,   14.1,   0.00,   0.00, 1001.9,   98.7, -999.0
24-07-2023, 00:03:34,    224,    0.0,   14.2,   0.00,   0.00, 1001.9,   98.6, -999.0
24-07-2023, 00:03:44,    225,    0.0,   14.2,   0.00,   0.00, 1001.8,   98.5, -999.0
24-07-2023, 00:03:54,    224,    0.0,   14.2,   0.00,   0.00, 1001.9,   98.6, -999.0
24-07-2023, 00:04:04,    225,    0.0,   14.1,   0.00,   0.00, 1001.9,   98.6, -999.0
24-07-2023, 00:04:14,    225,    0.0,   14.2,   0.00,   0.00, 1001.9,   98.6, -999.0
24-07-2023, 00:04:24,    225,    0.0,   14.2,   0.00,   0.00, 1001.9,   98.7, -999.0
24-07-2023, 00:04:34,    225,    0.0,   14.2,   0.00,   0.00, 1001.9,   98.6, -999.0
24-07-2023, 00:04:44,    225,    0.0,   14.2,   0.00,   0.00, 1001.9,   98.6, -999.0
24-07-2023, 00:04:54,    225,    0.0,   14.2,   0.00,   0.00, 1001.9,   98.6, -999.0
24-07-2023, 00:05:04,    225,    0.0,   14.2,   0.00,   0.00, 1001.9,   98.7, -999.0
24-07-2023, 00:05:14,    225,    0.0,   14.2,   0.00,   0.00, 1001.9,   98.6, -999.0
24-07-2023, 00:05:23,    225,    0.0,   14.2,   0.00,   0.00, 1001.9,   98.6, -999.0
24-07-2023, 00:05:34,    225,    0.0,   14.1,   0.00,   0.00, 1001.9,   98.6, -999.0
24-07-2023, 00:05:44,    225,    0.0,   14.2,   0.00,   0.00, 1001.9,   98.6, -999.0
24-07-2023, 00:05:54,    225,    0.0,   14.3,   0.00,   0.00, 1001.9,   98.6, -999.0
24-07-2023, 00:06:03,    225,    0.0,   14.2,   0.00,   0.00, 1001.9,   98.6, -999.0
24-07-2023, 00:06:14,    226,    0.0,   14.2,   0.00,   0.00, 1001.9,   98.6, -999.0
24-07-2023, 00:06:24,    225,    0.0,   14.2,   0.00,   0.00, 1001.9,   98.7, -999.0
24-07-2023, 00:06:33,    225,    0.0,   14.2,   0.00,   0.00, 1001.9,   98.6, -999.0
24-07-2023, 00:06:43,    225,    0.0,   14.2,   0.00,   0.00, 1001.9,   98.6, -999.0
24-07-2023, 00:06:54,    226,    0.0,   14.2,   0.00,   0.00, 1001.9,   98.7, -999.0
24-07-2023, 00:07:04,    226,    0.0,   14.2,   0.00,   0.00, 1001.9,   98.6, -999.0
24-07-2023, 00:07:13,    226,    0.0,   14.2,   0.00,   0.00, 1001.9,   98.6, -999.0
24-07-2023, 00:07:23,    225,    0.0,   14.2,   0.00,   0.00, 1001.9,   98.5, -999.0
24-07-2023, 00:07:34,    226,    0.0,   14.2,   0.00,   0.00, 1001.9,   98.6, -999.0
24-07-2023, 00:07:43,    246,    0.0,   14.1,   0.00,   0.00, 1001.9,   98.6, -999.0
24-07-2023, 00:07:53,    246,    0.0,   14.2,   0.00,   0.00, 1001.9,   98.7, -999.0
24-07-2023, 00:08:03,    246,    0.0,   14.2,   0.00,   0.00, 1001.9,   98.6, -999.0
24-07-2023, 00:08:13,    245,    0.0,   14.2,   0.00,   0.00, 1001.8,   98.6, -999.0
24-07-2023, 00:08:23,    246,    0.0,   14.2,   0.00,   0.00, 1001.9,   98.5, -999.0
24-07-2023, 00:08:33,    245,    0.0,   14.1,   0.00,   0.00, 1001.8,   98.6, -999.0
24-07-2023, 00:08:43,    246,    0.0,   14.1,   0.00,   0.00, 1001.9,   98.6, -999.0
24-07-2023, 00:08:53,    240,    0.0,   14.2,   0.00,   0.00, 1001.9,   98.6, -999.0
24-07-2023, 00:09:03,    246,    0.0,   14.2,   0.00,   0.00, 1001.9,   98.6, -999.0
24-07-2023, 00:09:13,    245,    0.0,   14.1,   0.00,   0.00, 1001.9,   98.6, -999.0
24-07-2023, 00:09:23,    245,    0.0,   14.2,   0.00,   0.00, 1001.9,   98.7, -999.0
24-07-2023, 00:09:33,    246,    0.0,   14.2,   0.00,   0.00, 1001.9,   98.6, -999.0
24-07-2023, 00:09:43,    246,    0.0,   14.3,   0.00,   0.00, 1001.8,   98.6, -999.0
24-07-2023, 00:09:53,    246,    0.0,   14.2,   0.00,   0.00, 1001.9,   98.6, -999.0
24-07-2023, 00:10:03,    245,    0.0,   14.2,   0.00,   0.00, 1001.9,   98.6, -999.0
24-07-2023, 00:10:13,    245,    0.0,   14.1,   0.00,   0.00, 1001.9,   98.6, -999.0
24-07-2023, 00:10:23,    246,    0.0,   14.2,   0.00,   0.00, 1001.8,   98.6, -999.0
24-07-2023, 00:10:33,    244,    0.0,   14.2,   0.00,   0.00, 1001.8,   98.6, -999.0
24-07-2023, 00:10:43,    244,    0.0,   14.2,   0.00,   0.00, 1001.8,   98.6, -999.0
24-07-2023, 00:10:53,    244,    0.0,   14.2,   0.00,   0.00, 1001.8,   98.6, -999.0
24-07-2023, 00:11:03,    244,    0.0,   14.2,   0.00,   0.00, 1001.8,   98.6, -999.0
24-07-2023, 00:11:13,    244,    0.0,   14.2,   0.00,   0.00, 1001.8,   98.6, -999.0
24-07-2023, 00:11:23,    244,    0.0,   14.1,   0.00,   0.00, 1001.8,   98.6, -999.0
24-07-2023, 00:11:33,    248,    0.0,   14.1,   0.00,   0.00, 1001.8,   98.6, -999.0
24-07-2023, 00:11:43,    244,    0.0,   14.2,   0.00,   0.00, 1001.8,   98.7, -999.0
24-07-2023, 00:11:53,    244,    0.0,   14.1,   0.00,   0.00, 1001.8,   98.6, -999.0
24-07-2023, 00:12:03,    244,    0.0,   14.2,   0.00,   0.00, 1001.8,   98.6, -999.0
24-07-2023, 00:12:13,    244,    0.0,   14.1,   0.00,   0.00, 1001.8,   98.5, -999.0
24-07-2023, 00:12:23,    244,    0.0,   14.2,   0.00,   0.00, 1001.8,   98.6, -999.0
24-07-2023, 00:12:33,    244,    0.0,   14.2,   0.00,   0.00, 1001.8,   98.5, -999.0
24-07-2023, 00:12:43,    244,    0.0,   14.1,   0.00,   0.00, 1001.8,   98.5, -999.0
24-07-2023, 00:12:53,    243,    0.0,   14.2,   0.00,   0.00, 1001.8,   98.6, -999.0
24-07-2023, 00:13:03,    244,    0.0,   14.2,   0.00,   0.00, 1001.9,   98.6, -999.0
24-07-2023, 00:13:13,    244,    0.0,   14.1,   0.00,   0.00, 1001.8,   98.6, -999.0
24-07-2023, 00:13:23,    244,    0.0,   14.2,   0.00,   0.00, 1001.8,   98.6, -999.0
24-07-2023, 00:13:33,    243,    0.0,   14.2,   0.00,   0.00, 1001.8,   98.6, -999.0
24-07-2023, 00:13:43,    244,    0.0,   14.2,   0.00,   0.00, 1001.8,   98.6, -999.0
24-07-2023, 00:13:52,    244,    0.0,   14.2,   0.00,   0.00, 1001.9,   98.7, -999.0
24-07-2023, 00:14:03,    242,    0.0,   14.2,   0.00,   0.00, 1001.9,   98.6, -999.0
24-07-2023, 00:14:13,    244,    0.0,   14.2,   0.00,   0.00, 1001.9,   98.6, -999.0
24-07-2023, 00:14:23,    243,    0.0,   14.2,   0.00,   0.00, 1001.8,   98.7, -999.0
24-07-2023, 00:14:32,    244,    0.0,   14.2,   0.00,   0.00, 1001.8,   98.7, -999.0
24-07-2023, 00:14:43,    244,    0.0,   14.2,   0.00,   0.00, 1001.8,   98.6, -999.0
24-07-2023, 00:14:53,    247,    0.0,   14.2,   0.00,   0.00, 1001.8,   98.6, -999.0
24-07-2023, 00:15:02,    244,    0.0,   14.1,   0.00,   0.00, 1001.8,   98.6, -999.0
24-07-2023, 00:15:12,    244,    0.0,   14.1,   0.00,   0.00, 1001.8,   98.6, -999.0
24-07-2023, 00:15:23,    244,    0.0,   14.2,   0.00,   0.00, 1001.8,   98.7, -999.0
24-07-2023, 00:15:33,    244,    0.0,   14.2,   0.00,   0.00, 1001.8,   98.6, -999.0
24-07-2023, 00:15:42,    252,    0.0,   14.2,   0.00,   0.00, 1001.9,   98.6, -999.0
24-07-2023, 00:15:52,    251,    0.0,   14.2,   0.00,   0.00, 1001.8,   98.6, -999.0
24-07-2023, 00:16:03,    252,    0.0,   14.2,   0.00,   0.00, 1001.8,   98.6, -999.0
24-07-2023, 00:16:12,    252,    0.0,   14.2,   0.00,   0.00, 1001.8,   98.7, -999.0
24-07-2023, 00:16:22,    252,    0.0,   14.2,   0.00,   0.00, 1001.9,   98.6, -999.0
24-07-2023, 00:16:32,    253,    0.0,   14.2,   0.00,   0.00, 1001.9,   98.6, -999.0
24-07-2023, 00:16:42,    252,    0.0,   14.3,   0.00,   0.00, 1001.9,   98.6, -999.0
24-07-2023, 00:16:52,    252,    0.0,   14.2,   0.00,   0.00, 1001.8,   98.6, -999.0
24-07-2023, 00:17:02,    252,    0.0,   14.1,   0.00,   0.00, 1001.8,   98.6, -999.0
24-07-2023, 00:17:12,    252,    0.0,   14.1,   0.00,   0.00, 1001.8,   98.6, -999.0
24-07-2023, 00:17:22,    252,    0.0,   14.2,   0.00,   0.00, 1001.9,   98.7, -999.0
24-07-2023, 00:17:32,    254,    0.0,   14.1,   0.00,   0.00, 1001.9,   98.6, -999.0
24-07-2023, 00:17:42,    254,    0.0,   14.1,   0.00,   0.00, 1001.9,   98.6, -999.0
24-07-2023, 00:17:52,    253,    0.0,   14.1,   0.00,   0.00, 1001.8,   98.6, -999.0
24-07-2023, 00:18:02,    254,    0.0,   14.1,   0.00,   0.00, 1001.8,   98.6, -999.0
24-07-2023, 00:18:12,    254,    0.0,   14.1,   0.00,   0.00, 1001.8,   98.6, -999.0
24-07-2023, 00:18:22,    243,    0.0,   14.1,   0.00,   0.00, 1001.8,   98.6, -999.0
24-07-2023, 00:18:32,    243,    0.0,   14.1,   0.00,   0.00, 1001.8,   98.6, -999.0
24-07-2023, 00:18:42,    243,    0.0,   14.1,   0.00,   0.00, 1001.8,   98.6, -999.0
24-07-2023, 00:18:52,    243,    0.0,   14.1,   0.00,   0.00, 1001.8,   98.7, -999.0
24-07-2023, 00:19:02,    243,    0.0,   14.1,   0.00,   0.00, 1001.8,   98.6, -999.0
24-07-2023, 00:19:12,    243,    0.0,   14.1,   0.00,   0.00, 1001.8,   98.6, -999.0
24-07-2023, 00:19:22,    243,    0.0,   14.1,   0.00,   0.00, 1001.8,   98.5, -999.0
24-07-2023, 00:19:32,    243,    0.0,   14.1,   0.00,   0.00, 1001.8,   98.6, -999.0
24-07-2023, 00:19:42,    243,    0.0,   14.2,   0.00,   0.00, 1001.8,   98.5, -999.0
24-07-2023, 00:19:52,    243,    0.0,   14.1,   0.00,   0.00, 1001.9,   98.6, -999.0
24-07-2023, 00:20:02,    228,    0.0,   14.1,   0.00,   0.00, 1001.8,   98.6, -999.0
24-07-2023, 00:20:12,    228,    0.0,   14.1,   0.00,   0.00, 1001.8,   98.6, -999.0
24-07-2023, 00:20:22,    228,    0.0,   14.1,   0.00,   0.00, 1001.8,   98.6, -999.0
24-07-2023, 00:20:32,    230,    0.0,   14.1,   0.00,   0.00, 1001.8,   98.6, -999.0
24-07-2023, 00:20:42,    230,    0.0,   14.1,   0.00,   0.00, 1001.8,   98.6, -999.0
24-07-2023, 00:20:52,    231,    0.0,   14.1,   0.00,   0.00, 1001.8,   98.6, -999.0
24-07-2023, 00:21:02,    231,    0.0,   14.1,   0.00,   0.00, 1001.8,   98.6, -999.0
24-07-2023, 00:21:11,    231,    0.0,   14.1,   0.00,   0.00, 1001.8,   98.6, -999.0
24-07-2023, 00:21:22,    231,    0.0,   14.1,   0.00,   0.00, 1001.8,   98.6, -999.0
24-07-2023, 00:21:32,    231,    0.0,   14.1,   0.00,   0.00, 1001.8,   98.6, -999.0
24-07-2023, 00:21:42,    232,    0.0,   14.1,   0.00,   0.00, 1001.8,   98.7, -999.0
24-07-2023, 00:21:51,    232,    0.0,   14.1,   0.00,   0.00, 1001.8,   98.6, -999.0
24-07-2023, 00:22:02,    232,    0.0,   14.1,   0.00,   0.00, 1001.8,   98.6, -999.0
24-07-2023, 00:22:12,    236,    0.0,   14.1,   0.00,   0.00, 1001.8,   98.6, -999.0
24-07-2023, 00:22:21,    236,    0.0,   14.1,   0.00,   0.00, 1001.8,   98.7, -999.0
24-07-2023, 00:22:32,    246,    0.5,   14.1,   0.00,   0.00, 1001.9,   98.8, -999.0
24-07-2023, 00:22:42,    247,    1.2,   14.2,   0.00,   0.00, 1002.0,   99.0, -999.0
24-07-2023, 00:22:51,    247,    0.0,   14.1,   0.00,   0.00, 1001.9,   98.7, -999.0
24-07-2023, 00:23:01,    251,    0.5,   14.1,   0.00,   0.00, 1001.9,   98.9, -999.0
24-07-2023, 00:23:12,    251,    0.0,   14.1,   0.00,   0.00, 1001.8,   98.6, -999.0
24-07-2023, 00:23:21,    250,    0.0,   14.1,   0.00,   0.00, 1001.8,   98.7, -999.0
24-07-2023, 00:23:31,    251,    0.0,   14.1,   0.00,   0.00, 1001.8,   98.6, -999.0
24-07-2023, 00:23:41,    251,    0.0,   14.1,   0.00,   0.00, 1001.8,   98.7, -999.0
24-07-2023, 00:23:52,    251,    0.0,   14.1,   0.00,   0.00, 1001.9,   98.6, -999.0
24-07-2023, 00:24:01,    251,    0.0,   14.1,   0.00,   0.00, 1001.8,   98.6, -999.0
24-07-2023, 00:24:11,    251,    0.0,   14.2,   0.00,   0.00, 1001.8,   98.6, -999.0
24-07-2023, 00:24:21,    250,    0.0,   14.2,   0.00,   0.00, 1001.8,   98.6, -999.0
24-07-2023, 00:24:31,    250,    0.0,   14.2,   0.00,   0.00, 1001.8,   98.6, -999.0
24-07-2023, 00:24:41,    250,    0.0,   14.0,   0.00,   0.00, 1001.8,   98.6, -999.0
24-07-2023, 00:24:51,    250,    0.0,   14.2,   0.00,   0.00, 1001.8,   98.6, -999.0
24-07-2023, 00:25:01,    264,    0.0,   14.1,   0.00,   0.00, 1001.8,   98.6, -999.0
24-07-2023, 00:25:11,    263,    0.0,   14.1,   0.00,   0.00, 1001.8,   98.6, -999.0
24-07-2023, 00:25:21,    266,    0.0,   14.2,   0.00,   0.00, 1001.8,   98.7, -999.0
24-07-2023, 00:25:31,    262,    0.1,   14.2,   0.00,   0.00, 1001.9,   98.9, -999.0
24-07-2023, 00:25:41,    262,    0.0,   14.2,   0.00,   0.00, 1001.8,   98.6, -999.0
24-07-2023, 00:25:51,    262,    0.0,   14.1,   0.00,   0.00, 1001.8,   98.5, -999.0
24-07-2023, 00:26:01,    262,    0.2,   14.1,   0.00,   0.00, 1001.9,   98.8, -999.0
24-07-2023, 00:26:11,    262,    0.0,   14.1,   0.00,   0.00, 1001.9,   98.6, -999.0
24-07-2023, 00:26:21,    294,    0.0,   14.1,   0.00,   0.00, 1001.8,   98.6, -999.0
24-07-2023, 00:26:31,    294,    0.0,   14.1,   0.00,   0.00, 1001.8,   98.6, -999.0
24-07-2023, 00:26:41,    294,    0.0,   14.2,   0.00,   0.00, 1001.8,   98.7, -999.0
24-07-2023, 00:26:51,    294,    0.0,   14.2,   0.00,   0.00, 1001.9,   98.6, -999.0
24-07-2023, 00:27:01,    292,    0.0,   14.1,   0.00,   0.00, 1001.8,   98.6, -999.0
24-07-2023, 00:27:11,    292,    0.0,   14.1,   0.00,   0.00, 1001.8,   98.6, -999.0
24-07-2023, 00:27:21,    293,    0.0,   14.2,   0.00,   0.00, 1001.8,   98.6, -999.0
24-07-2023, 00:27:31,    292,    0.0,   14.2,   0.00,   0.00, 1001.8,   98.6, -999.0
24-07-2023, 00:27:41,    292,    0.0,   14.2,   0.00,   0.00, 1001.8,   98.6, -999.0
24-07-2023, 00:27:51,    292,    0.0,   14.1,   0.00,   0.00, 1001.8,   98.6, -999.0
24-07-2023, 00:28:01,    292,    0.0,   14.1,   0.00,   0.00, 1001.8,   98.7, -999.0
24-07-2023, 00:28:11,    292,    0.0,   14.1,   0.00,   0.00, 1001.8,   98.6, -999.0
24-07-2023, 00:28:21,    292,    0.0,   14.1,   0.00,   0.00, 1001.8,   98.6, -999.0
24-07-2023, 00:28:32,    292,    0.0,   14.1,   0.00,   0.00, 1001.8,   98.5, -999.0
24-07-2023, 00:28:41,    292,    0.0,   14.0,   0.00,   0.00, 1001.8,   98.6, -999.0
24-07-2023, 00:28:51,    292,    0.0,   14.1,   0.00,   0.00, 1001.8,   98.7, -999.0
24-07-2023, 00:29:01,    292,    0.0,   14.1,   0.00,   0.00, 1001.8,   98.5, -999.0
24-07-2023, 00:29:11,    292,    0.0,   14.0,   0.00,   0.00, 1001.8,   98.6, -999.0
24-07-2023, 00:29:21,    292,    0.0,   14.1,   0.00,   0.00, 1001.8,   98.6, -999.0
24-07-2023, 00:29:31,    292,    0.0,   14.1,   0.00,   0.00, 1001.8,   98.6, -999.0
24-07-2023, 00:29:41,    292,    0.0,   14.1,   0.00,   0.00, 1001.8,   98.6, -999.0
24-07-2023, 00:29:51,    292,    0.0,   14.1,   0.00,   0.00, 1001.8,   98.6, -999.0
24-07-2023, 00:30:00,    292,    0.0,   14.1,   0.00,   0.00, 1001.8,   98.6, -999.0
24-07-2023, 00:30:11,    292,    0.0,   14.1,   0.00,   0.00, 1001.8,   98.7, -999.0
24-07-2023, 00:30:21,    292,    0.0,   14.1,   0.00,   0.00, 1001.8,   98.6, -999.0
24-07-2023, 00:30:30,    292,    0.0,   14.1,   0.00,   0.00, 1001.8,   98.7, -999.0
24-07-2023, 00:30:40,    292,    0.0,   14.1,   0.00,   0.00, 1001.8,   98.6, -999.0
24-07-2023, 00:30:51,    292,    0.0,   14.1,   0.00,   0.00, 1001.8,   98.6, -999.0
24-07-2023, 00:31:01,    292,    0.0,   14.1,   0.00,   0.00, 1001.8,   98.6, -999.0
24-07-2023, 00:31:10,    292,    0.0,   14.1,   0.00,   0.00, 1001.8,   98.5, -999.0
24-07-2023, 00:31:20,    292,    0.0,   14.1,   0.00,   0.00, 1001.8,   98.6, -999.0
24-07-2023, 00:31:31,    228,    0.0,   14.1,   0.00,   0.00, 1001.8,   98.6, -999.0
24-07-2023, 00:31:40,    228,    0.0,   14.1,   0.00,   0.00, 1001.8,   98.6, -999.0
24-07-2023, 00:31:50,    225,    0.0,   14.1,   0.00,   0.00, 1001.8,   98.6, -999.0
24-07-2023, 00:32:00,    197,    0.0,   14.1,   0.00,   0.00, 1001.8,   98.6, -999.0
24-07-2023, 00:32:11,    195,    0.9,   14.2,   0.00,   0.00, 1001.9,   99.0, -999.0
24-07-2023, 00:32:20,    276,    0.3,   14.1,   0.00,   0.00, 1001.9,   98.9, -999.0
24-07-2023, 00:32:30,    276,    1.9,   14.1,   0.00,   0.00, 1001.9,   99.0, -999.0
24-07-2023, 00:32:40,    276,    0.6,   14.1,   0.00,   0.00, 1001.9,   98.9, -999.0
24-07-2023, 00:32:50,    245,    0.6,   14.0,   0.00,   0.00, 1001.9,   98.9, -999.0
24-07-2023, 00:33:00,    247,    1.6,   14.1,   0.00,   0.00, 1001.9,   99.0, -999.0
24-07-2023, 00:33:10,    249,    0.5,   14.0,   0.00,   0.00, 1001.9,   98.8, -999.0
24-07-2023, 00:33:20,    240,    1.5,   14.1,   0.00,   0.00, 1002.0,   99.0, -999.0
24-07-2023, 00:33:30,    241,    0.0,   14.0,   0.00,   0.00, 1001.8,   98.6, -999.0
24-07-2023, 00:33:40,    240,    0.0,   14.0,   0.00,   0.00, 1001.8,   98.6, -999.0
24-07-2023, 00:33:50,    240,    0.0,   13.9,   0.00,   0.00, 1001.8,   98.7, -999.0
24-07-2023, 00:34:00,    240,    0.0,   14.0,   0.00,   0.00, 1001.8,   98.6, -999.0
24-07-2023, 00:34:10,    211,    1.0,   14.1,   0.00,   0.00, 1001.9,   98.9, -999.0
24-07-2023, 00:34:20,    210,    1.1,   14.1,   0.00,   0.00, 1001.9,   99.0, -999.0
24-07-2023, 00:34:30,    236,    2.1,   14.1,   0.00,   0.00, 1001.9,   99.0, -999.0
24-07-2023, 00:34:40,    236,    0.9,   14.1,   0.00,   0.00, 1001.9,   99.0, -999.0
24-07-2023, 00:34:50,    235,    0.4,   14.1,   0.00,   0.00, 1001.9,   99.0, -999.0
24-07-2023, 00:35:00,    235,    0.0,   14.0,   0.00,   0.00, 1001.8,   98.6, -999.0
24-07-2023, 00:35:10,    235,    0.0,   13.9,   0.00,   0.00, 1001.8,   98.6, -999.0
24-07-2023, 00:35:20,    237,    0.7,   14.0,   0.00,   0.00, 1001.9,   99.0, -999.0
24-07-2023, 00:35:30,    242,    0.7,   14.1,   0.00,   0.00, 1001.9,   99.0, -999.0
24-07-2023, 00:35:40,    218,    0.1,   14.0,   0.00,   0.00, 1001.8,   98.8, -999.0
24-07-2023, 00:35:50,    218,    0.0,   14.0,   0.00,   0.00, 1001.8,   98.6, -999.0
24-07-2023, 00:36:00,    218,    0.0,   13.9,   0.00,   0.00, 1001.8,   98.6, -999.0
24-07-2023, 00:36:10,    218,    0.0,   14.0,   0.00,   0.00, 1001.8,   98.6, -999.0
24-07-2023, 00:36:20,    217,    0.0,   14.0,   0.00,   0.00, 1001.8,   98.6, -999.0
24-07-2023, 00:36:30,    217,    0.0,   14.0,   0.00,   0.00, 1001.8,   98.6, -999.0
24-07-2023, 00:36:40,    217,    0.0,   14.0,   0.00,   0.00, 1001.8,   98.7, -999.0
24-07-2023, 00:36:50,    217,    0.0,   13.9,   0.00,   0.00, 1001.8,   98.6, -999.0
24-07-2023, 00:37:00,    217,    0.0,   13.9,   0.00,   0.00, 1001.8,   98.6, -999.0
24-07-2023, 00:37:10,    250,    0.3,   14.0,   0.00,   0.00, 1001.9,   98.8, -999.0
24-07-2023, 00:37:20,    251,    0.7,   14.0,   0.00,   0.00, 1002.0,   99.0, -999.0
24-07-2023, 00:37:30,    271,    1.4,   14.0,   0.00,   0.00, 1002.0,   99.0, -999.0
24-07-2023, 00:37:40,    253,    0.5,   14.0,   0.00,   0.00, 1001.9,   99.0, -999.0
24-07-2023, 00:37:49,    258,    0.6,   14.0,   0.00,   0.00, 1001.9,   98.9, -999.0
24-07-2023, 00:38:00,    255,    1.1,   14.0,   0.00,   0.00, 1002.0,   99.0, -999.0
24-07-2023, 00:38:10,    250,    0.5,   14.0,   0.00,   0.00, 1002.0,   98.9, -999.0
24-07-2023, 00:38:19,    249,    0.1,   13.8,   0.00,   0.00, 1001.9,   98.8, -999.0
24-07-2023, 00:38:29,    249,    0.0,   13.8,   0.00,   0.00, 1001.8,   98.6, -999.0
24-07-2023, 00:38:40,    249,    0.0,   13.9,   0.00,   0.00, 1001.8,   98.7, -999.0
24-07-2023, 00:38:50,    248,    0.0,   13.9,   0.00,   0.00, 1001.8,   98.6, -999.0
24-07-2023, 00:38:59,    248,    0.0,   13.9,   0.00,   0.00, 1001.8,   98.6, -999.0
24-07-2023, 00:39:09,    249,    0.0,   13.9,   0.00,   0.00, 1001.8,   98.6, -999.0
24-07-2023, 00:39:20,    249,    0.0,   13.9,   0.00,   0.00, 1001.8,   98.6, -999.0
24-07-2023, 00:39:29,    248,    0.0,   13.8,   0.00,   0.00, 1001.8,   98.6, -999.0
24-07-2023, 00:39:39,    248,    0.0,   13.9,   0.00,   0.00, 1001.8,   98.6, -999.0
24-07-2023, 00:39:49,    248,    0.0,   13.9,   0.00,   0.00, 1001.8,   98.6, -999.0
24-07-2023, 00:39:59,    248,    0.0,   13.9,   0.00,   0.00, 1001.8,   98.6, -999.0
24-07-2023, 00:40:09,    248,    0.0,   13.9,   0.00,   0.00, 1001.8,   98.7, -999.0
24-07-2023, 00:40:19,    239,    0.0,   14.0,   0.00,   0.00, 1001.8,   98.6, -999.0
24-07-2023, 00:40:29,    237,    0.0,   14.0,   0.00,   0.00, 1001.8,   98.7, -999.0
24-07-2023, 00:40:39,    232,    0.7,   14.1,   0.00,   0.00, 1001.9,   98.9, -999.0
24-07-2023, 00:40:49,    232,    0.2,   14.1,   0.00,   0.00, 1001.9,   98.9, -999.0
24-07-2023, 00:40:59,    233,    0.4,   13.9,   0.00,   0.00, 1001.9,   98.9, -999.0
24-07-2023, 00:41:09,    223,    1.9,   14.0,   0.00,   0.00, 1001.9,   99.0, -999.0
24-07-2023, 00:41:19,    229,    2.2,   14.0,   0.00,   0.00, 1001.9,   99.0, -999.0
24-07-2023, 00:41:29,    231,    1.4,   14.0,   0.00,   0.00, 1001.9,   99.0, -999.0
24-07-2023, 00:41:39,    232,    0.2,   13.9,   0.00,   0.00, 1001.8,   98.9, -999.0
24-07-2023, 00:41:49,    232,    0.0,   13.9,   0.00,   0.00, 1001.7,   98.6, -999.0
24-07-2023, 00:41:59,    233,    0.0,   13.9,   0.00,   0.00, 1001.8,   98.7, -999.0
24-07-2023, 00:42:09,    233,    0.0,   13.9,   0.00,   0.00, 1001.8,   98.6, -999.0
24-07-2023, 00:42:19,    233,    0.0,   13.9,   0.00,   0.00, 1001.8,   98.6, -999.0
24-07-2023, 00:42:29,    204,    0.7,   13.9,   0.00,   0.00, 1001.8,   98.8, -999.0
24-07-2023, 00:42:39,    205,    0.3,   14.0,   0.00,   0.00, 1001.8,   98.9, -999.0
24-07-2023, 00:42:49,    225,    0.0,   13.9,   0.00,   0.00, 1001.8,   98.7, -999.0
24-07-2023, 00:42:59,    224,    0.0,   13.9,   0.00,   0.00, 1001.8,   98.6, -999.0
24-07-2023, 00:43:09,    225,    0.0,   13.9,   0.00,   0.00, 1001.7,   98.7, -999.0
24-07-2023, 00:43:19,    224,    0.2,   14.0,   0.00,   0.00, 1001.8,   98.8, -999.0
24-07-2023, 00:43:29,    233,    0.3,   13.9,   0.00,   0.00, 1001.7,   98.8, -999.0
24-07-2023, 00:43:39,    221,    0.2,   14.0,   0.00,   0.00, 1001.8,   98.9, -999.0
24-07-2023, 00:43:49,    225,    0.0,   13.9,   0.00,   0.00, 1001.7,   98.6, -999.0
24-07-2023, 00:43:59,    225,    0.0,   13.8,   0.00,   0.00, 1001.8,   98.7, -999.0
24-07-2023, 00:44:09,    226,    0.1,   13.9,   0.00,   0.00, 1001.8,   98.8, -999.0
24-07-2023, 00:44:19,    254,    0.7,   13.9,   0.00,   0.00, 1001.8,   98.9, -999.0
24-07-2023, 00:44:29,    253,    0.0,   13.9,   0.00,   0.00, 1001.7,   98.7, -999.0
24-07-2023, 00:44:39,    254,    0.1,   13.9,   0.00,   0.00, 1001.7,   98.8, -999.0
24-07-2023, 00:44:49,    255,    0.3,   13.9,   0.00,   0.00, 1001.8,   98.9, -999.0
24-07-2023, 00:44:59,    255,    0.0,   13.9,   0.00,   0.00, 1001.7,   98.6, -999.0
24-07-2023, 00:45:09,    255,    0.0,   13.9,   0.00,   0.00, 1001.7,   98.6, -999.0
24-07-2023, 00:45:19,    255,    0.0,   13.9,   0.00,   0.00, 1001.7,   98.6, -999.0
24-07-2023, 00:45:28,    254,    0.0,   13.9,   0.00,   0.00, 1001.7,   98.6, -999.0
24-07-2023, 00:45:39,    255,    0.0,   13.9,   0.00,   0.00, 1001.7,   98.7, -999.0
24-07-2023, 00:45:49,    254,    0.0,   13.8,   0.00,   0.00, 1001.7,   98.6, -999.0
24-07-2023, 00:45:59,    255,    0.0,   13.8,   0.00,   0.00, 1001.7,   98.7, -999.0
24-07-2023, 00:46:08,    233,    0.0,   13.9,   0.00,   0.00, 1001.7,   98.6, -999.0
24-07-2023, 00:46:19,    232,    0.0,   13.9,   0.00,   0.00, 1001.6,   98.6, -999.0
24-07-2023, 00:46:29,    232,    0.0,   13.9,   0.00,   0.00, 1001.6,   98.6, -999.0
24-07-2023, 00:46:38,    232,    0.0,   13.9,   0.00,   0.00, 1001.7,   98.6, -999.0
24-07-2023, 00:46:48,    232,    0.0,   13.9,   0.00,   0.00, 1001.7,   98.6, -999.0